Location: Alincthun
(50.7310°N, 1.8022°E)
Time: 15:45:04
(UTC+00:00)

Meteor PRIRODA - Pass Details

Date: 17 February 2020
Orbit: 490 x 512 km, 97.5° (Epoch: 08 April)

Event Time Altitude Azimuth Distance (km) Brightness Sun altitude
Rises 05:04:04 0° 13° (NNE) 2,629 7.5 -19.3°
Reaches altitude 10° 05:06:11 10° 13° (NNE) 1,736 6.6 -19.0°
Maximum altitude 05:09:55 88° 285° (WNW) 513 3.5 -18.4°
Drops below altitude 10° 05:13:36 10° 196° (SSW) 1,708 6.1 -17.8°
Enters shadow 05:14:10 - 196° (SSW) 1,945 6.4 -17.7°
